Weather History for Flippin, AR

Change the Weather History Date:

Tuesday, April 29, 2014

  Actual Average Record
Temperature  
Mean Temperature 58 °F -  
Max Temperature 66 °F 72 °F 84 °F (2003)
Min Temperature 48 °F 50 °F 33 °F (2008)
Degree Days  
Heating Degree Days 7    
Growing Degree Days 8 (Base 50)    
Moisture  
Dew Point 35 °F    
Average Humidity 45    
Maximum Humidity 62    
Minimum Humidity 32    
Precipitation  
Precipitation 0.00 in - - ()
Sea Level Pressure  
Sea Level Pressure 29.68 in    
Wind  
Wind Speed 10 mph (WSW)    
Max Wind Speed 23 mph    
Max Gust Speed 33 mph    
Visibility 10 miles    
Events      
Averages and records for this station are not official NWS values.
T = Trace of Precipitation, MM = Missing Value Source: NWS Daily Summary

Daily Weather History Graph

Daily Weather History Graph

Search for Another Location

Airport:

Trip Planner

Search our weather history database for the weather conditions in past years. The results will help you decide how hot, cold, wet, or windy it might be!

Date:

Astronomy

Apr. 29, 2014 Rise Set
Actual Time 6:19 AM CDT 7:56 PM CDT
Civil Twilight 5:52 AM CDT 8:23 PM CDT
Nautical Twilight 5:19 AM CDT 8:57 PM CDT
Astronomical Twilight 4:44 AM CDT 9:32 PM CDT
Moon 6:37 AM CDT (4/29) 8:36 PM CDT (4/29)
Length of Visible Light 14h 31m
Length of Day
13h 36m
New Moon, 0% of the Moon is Illuminated
Apr 29
New Moon
May 6
First Quarter
May 14
Full
May 21
Last Quarter
May 28
New

Hourly Weather History & Observations

Time (CDT) Temp. Dew Point Humidity Pressure Visibility Wind Dir Wind Speed Gust Speed Precip Events Conditions
12:15 AM 57.2 °F 35.6 °F 44% 29.60 in 10.0 mi SSW 6.9 mph - N/A   Clear
12:35 AM 57.2 °F 35.6 °F 44% 29.60 in 10.0 mi SW 6.9 mph - N/A   Clear
12:55 AM 57.2 °F 35.6 °F 44% 29.60 in 10.0 mi SW 6.9 mph - N/A   Clear
1:15 AM 57.2 °F 35.6 °F 44% 29.60 in 10.0 mi SW 5.8 mph - N/A   Clear
1:35 AM 55.4 °F 35.6 °F 47% 29.60 in 10.0 mi West 3.5 mph - N/A   Clear
1:55 AM 53.6 °F 35.6 °F 51% 29.61 in 10.0 mi SSW 4.6 mph - N/A   Clear
2:15 AM 55.4 °F 35.6 °F 47% 29.60 in 10.0 mi SW 4.6 mph - N/A   Clear
2:35 AM 55.4 °F 35.6 °F 47% 29.60 in 10.0 mi SW 6.9 mph - N/A   Clear
2:55 AM 55.4 °F 35.6 °F 47% 29.60 in 10.0 mi SW 5.8 mph - N/A   Clear
3:15 AM 55.4 °F 35.6 °F 47% 29.59 in 10.0 mi WSW 4.6 mph - N/A   Clear
3:35 AM 53.6 °F 35.6 °F 51% 29.59 in 10.0 mi SSW 5.8 mph - N/A   Clear
3:55 AM 51.8 °F 35.6 °F 54% 29.58 in 10.0 mi SW 5.8 mph - N/A   Clear
4:15 AM 53.6 °F 35.6 °F 51% 29.58 in 10.0 mi SW 4.6 mph - N/A   Clear
4:35 AM 53.6 °F 33.8 °F 47% 29.58 in 10.0 mi SW 5.8 mph - N/A   Clear
4:55 AM 51.8 °F 33.8 °F 50% 29.58 in 10.0 mi West 3.5 mph - N/A   Clear
5:15 AM 53.6 °F 33.8 °F 47% 29.59 in 10.0 mi SW 4.6 mph - N/A   Clear
5:35 AM 53.6 °F 33.8 °F 47% 29.59 in 10.0 mi SW 4.6 mph - N/A   Clear
5:55 AM 51.8 °F 33.8 °F 50% 29.59 in 10.0 mi West 5.8 mph - N/A   Clear
6:15 AM 51.8 °F 33.8 °F 50% 29.60 in 10.0 mi West 6.9 mph - N/A   Clear
6:35 AM 50.0 °F 33.8 °F 54% 29.61 in 10.0 mi SW 3.5 mph - N/A   Clear
6:55 AM 50.0 °F 33.8 °F 54% 29.61 in 10.0 mi WSW 9.2 mph - N/A   Clear
7:15 AM 51.8 °F 33.8 °F 50% 29.62 in 10.0 mi SSW 4.6 mph - N/A   Clear
7:35 AM 53.6 °F 33.8 °F 47% 29.63 in 10.0 mi SW 6.9 mph - N/A   Clear
7:55 AM 55.4 °F 33.8 °F 44% 29.63 in 10.0 mi WSW 11.5 mph - N/A   Clear
8:15 AM 55.4 °F 33.8 °F 44% 29.63 in 10.0 mi WSW 15.0 mph - N/A   Clear
8:35 AM 57.2 °F 33.8 °F 41% 29.63 in 10.0 mi WSW 16.1 mph 20.7 mph N/A   Clear
8:55 AM 57.2 °F 33.8 °F 41% 29.63 in 10.0 mi WSW 17.3 mph 25.3 mph N/A   Clear
9:15 AM 59.0 °F 33.8 °F 39% 29.63 in 10.0 mi WSW 19.6 mph 25.3 mph N/A   Clear
9:35 AM 59.0 °F 33.8 °F 39% 29.63 in 10.0 mi West 18.4 mph 33.4 mph N/A   Clear
9:55 AM 60.8 °F 33.8 °F 36% 29.64 in 10.0 mi West 16.1 mph 20.7 mph N/A   Clear
10:15 AM 60.8 °F 33.8 °F 36% 29.63 in 10.0 mi WSW 20.7 mph 26.5 mph N/A   Clear
10:35 AM 60.8 °F 33.8 °F 36% 29.63 in 10.0 mi West 16.1 mph 28.8 mph N/A   Clear
10:55 AM 62.6 °F 35.6 °F 37% 29.63 in 10.0 mi WSW 16.1 mph 25.3 mph N/A   Clear
11:15 AM 62.6 °F 35.6 °F 37% 29.62 in 10.0 mi WSW 18.4 mph 23.0 mph N/A   Clear
11:35 AM 64.4 °F 35.6 °F 34% 29.63 in 10.0 mi WSW 13.8 mph 25.3 mph N/A   Clear
11:55 AM 64.4 °F 37.4 °F 37% 29.63 in 10.0 mi WSW 18.4 mph 24.2 mph N/A   Clear
12:15 PM 66.2 °F 35.6 °F 32% 29.63 in 10.0 mi West 13.8 mph 19.6 mph N/A   Clear
12:35 PM 66.2 °F 37.4 °F 35% 29.63 in 10.0 mi West 19.6 mph 26.5 mph N/A   Clear
12:55 PM 66.2 °F 35.6 °F 32% 29.63 in 10.0 mi West 20.7 mph 31.1 mph N/A   Clear
1:15 PM 66.2 °F 37.4 °F 35% 29.63 in 10.0 mi West 19.6 mph 29.9 mph N/A   Clear
1:35 PM 66.2 °F 37.4 °F 35% 29.64 in 10.0 mi WNW 17.3 mph 25.3 mph N/A   Clear
1:55 PM 66.2 °F 37.4 °F 35% 29.64 in 10.0 mi West 23.0 mph 28.8 mph N/A   Clear
2:15 PM 66.2 °F 37.4 °F 35% 29.65 in 10.0 mi West 21.9 mph 31.1 mph N/A   Partly Cloudy
2:35 PM 66.2 °F 37.4 °F 35% 29.65 in 10.0 mi West 19.6 mph 33.4 mph N/A   Clear
2:55 PM 64.4 °F 37.4 °F 37% 29.67 in 10.0 mi WNW 21.9 mph 28.8 mph N/A   Partly Cloudy
3:15 PM 62.6 °F 37.4 °F 39% 29.68 in 10.0 mi West 19.6 mph 27.6 mph N/A   Partly Cloudy
3:35 PM 64.4 °F 37.4 °F 37% 29.68 in 10.0 mi WNW 21.9 mph 29.9 mph N/A   Partly Cloudy
4:15 PM 62.6 °F 35.6 °F 37% 29.70 in 10.0 mi West 23.0 mph 32.2 mph N/A   Scattered Clouds
4:35 PM 62.6 °F 35.6 °F 37% 29.71 in 10.0 mi West 19.6 mph 28.8 mph N/A   Overcast
4:55 PM 62.6 °F 37.4 °F 39% 29.72 in 10.0 mi West 20.7 mph 26.5 mph N/A   Mostly Cloudy
5:15 PM 60.8 °F 35.6 °F 39% 29.73 in 10.0 mi West 17.3 mph 21.9 mph N/A   Scattered Clouds
5:35 PM 60.8 °F 35.6 °F 39% 29.74 in 10.0 mi WNW 17.3 mph 28.8 mph N/A   Scattered Clouds
5:55 PM 60.8 °F 35.6 °F 39% 29.75 in 10.0 mi West 13.8 mph 24.2 mph N/A   Partly Cloudy
6:15 PM 59.0 °F 35.6 °F 42% 29.76 in 10.0 mi West 18.4 mph 25.3 mph N/A   Scattered Clouds
6:35 PM 57.2 °F 35.6 °F 44% 29.76 in 10.0 mi West 13.8 mph - N/A   Partly Cloudy
6:55 PM 57.2 °F 35.6 °F 44% 29.76 in 10.0 mi West 16.1 mph 20.7 mph N/A   Clear
7:15 PM 57.2 °F 35.6 °F 44% 29.77 in 10.0 mi West 13.8 mph 18.4 mph N/A   Clear
7:35 PM 55.4 °F 35.6 °F 47% 29.78 in 10.0 mi WNW 16.1 mph 20.7 mph N/A   Partly Cloudy
7:55 PM 53.6 °F 35.6 °F 51% 29.79 in 10.0 mi WNW 8.1 mph - N/A   Scattered Clouds
8:15 PM 53.6 °F 35.6 °F 51% 29.79 in 10.0 mi WNW 9.2 mph - N/A   Mostly Cloudy
8:35 PM 53.6 °F 35.6 °F 51% 29.80 in 10.0 mi WNW 9.2 mph - N/A   Overcast
8:55 PM 51.8 °F 35.6 °F 54% 29.81 in 10.0 mi WNW 9.2 mph 16.1 mph N/A   Scattered Clouds
9:15 PM 51.8 °F 35.6 °F 54% 29.82 in 10.0 mi WNW 5.8 mph - N/A   Mostly Cloudy
9:35 PM 51.8 °F 35.6 °F 54% 29.83 in 10.0 mi West 9.2 mph - N/A   Overcast
9:55 PM 51.8 °F 35.6 °F 54% 29.83 in 10.0 mi West 8.1 mph - N/A   Overcast
10:15 PM 51.8 °F 35.6 °F 54% 29.84 in 10.0 mi West 9.2 mph - N/A   Overcast
10:35 PM 51.8 °F 35.6 °F 54% 29.86 in 10.0 mi WNW 13.8 mph 23.0 mph N/A   Overcast
10:55 PM 50.0 °F 35.6 °F 58% 29.86 in 10.0 mi West 10.4 mph - N/A   Overcast
11:15 PM 50.0 °F 35.6 °F 58% 29.86 in 10.0 mi WNW 8.1 mph - N/A   Overcast
11:35 PM 50.0 °F 35.6 °F 58% 29.85 in 10.0 mi West 8.1 mph - N/A   Overcast
11:55 PM 48.2 °F 35.6 °F 62% 29.85 in 10.0 mi WNW 8.1 mph - N/A   Overcast